TRAILBLAZER 2

Satellite information

Favourite Embed

Satellite Type and Status

PAYLOADIN ORBIT

Key statistics

Satellite TRAILBLAZER 2 at a glance.

Uptime

8233

Days in orbit

Revolutions

≈ 14.8

Per day

Orbit

LEO

Low Earth Orbit

Inclination

64.6

Latest

Satellite identification and parameters

Extended collection of information and parameters for TRAILBLAZER 2.

Object identification

Identified? True

Debris? False

Object name: TRAILBLAZER 2

International designator: 2002-058E

Object number (NORAD): 27609

Object ID (CCSDS): 27609

Country: UNITED STATES OF AMERICA (US)

Current information (Y/N): Y

RCS size: LARGE

Orbital parameters

Period: 97.24 minutes

Inclination: 64.5565 deg

SMA: 7004.718 km

Apoapsis: 661.575 km

Periapsis: 591.59 km

RAAN: 328.7115 deg

Eccentricy: 0.0049956

Argument of periapsis: 293.9218 deg

Mean anomaly: 65.6658 deg

Mean motion: 14.80869589 rev/day

Mean motion (dot): 0.00000195 rev/day2

B* drag term: 0.000043775 1/REarth

Two-line elements (TLE)

Creation date: July 4, 2025, 6:39 p.m.

Reference frame: TEME

Reference center: EARTH

Epoch: July 4, 2025, 2:54 p.m. UTC

TLE line 0: 0 TRAILBLAZER 2

TLE line 1: 1 27609U 02058E 25185.62122879 .00000195 00000-0 43775-4 0 9992

TLE line 2: 2 27609 64.5565 328.7115 0049956 293.9218 65.6658 14.80869589216217

Live tracking on map

Real-time ground track for satellite TRAILBLAZER 2.

In-orbit conjunctions

A list of the most updated potential collisions computed for object TRAILBLAZER 2.

Target Orbit TCA Probability of collision Miss distance Type
CZ-6A DEB SSO 2025-06-13 00:51:42 0.0001309713 262.0 (m) DEBRIS
CZ-6A DEB LEO 2025-01-16 15:36:26 0.0002044734 115.0 (m) DEBRIS

Associated space launch

Technology satellite for OHB-System, Germany.

TRAILBLAZER 2 was lifted into orbit during the mission ‘Dnepr | AATiS-OSCAR-49’, on board a Dnepr space rocket.

The launch took place on Dec. 20, 2002, 5 p.m. from 109/95.

For more information about the launch, click the button.

Launch to space Dnepr | AATiS-OSCAR-49
Dnepr | AATiS-OSCAR-49

Agency: N/A

Status: Launch Successful

Launch date: Dec. 20, 2002, 5 p.m. UTC

Rocket: Dnepr

Launch pad: 109/95

Location: Baikonur Cosmodrome, Republic of Kazakhstan

...

Latest news about this satellite

There are no fresh news available about this satellite. Check back as we update our databases every day.


Newsletter sign-up

Weekly statistics, charts and insights to help you stay on top of the space industry.